Regional Weather Roundup
Issued by NWS

Home | Current Version | Previous Version | Graphics & Text | Print | Product List | Glossary On
Versions: 1 2 3 4 5 6 7 8 9 10 11 12 13 14 15 16 17 18 19 20 21 22 23 24 25 26 27 28 29 30 31 32 33 34 35 36 37 38 39 40 41 42 43 44 45 46 47 48 49 50
056
ASUS43 KOAX 291810
RWRNE

WEATHER ROUNDUP FOR NEBRASKA
NATIONAL WEATHER SERVICE OMAHA NE
100 PM CDT MON AUG 29 2016

NOTES: SATELLITE DATA IS BEING USED TO AUGMENT CLOUD COVER ABOVE
       12000 FEET.
       "FAIR" INDICATES FEW OR NO CLOUDS BELOW 12,000 FEET WITH NO
       SIGNIFICANT WEATHER AND/OR OBSTRUCTIONS TO VISIBILITY.

  * THESE STATIONS DO NOT REPORT WEATHER SUCH AS RAIN...SNOW OR FOG.

NEZ001>004-019>022-054>056-291900-
NEBRASKA PANHANDLE

CITY           SKY/WX    TMP DP  RH WIND       PRES   REMARKS
SCOTTSBLUFF    MOSUNNY   82  51  34 VRB3      30.25F
6HR MIN TEMP:  52; 6HR MAX TEMP:  83;

ALLIANCE       MOSUNNY   80  56  43 CALM      30.25F
6HR MIN TEMP:  46; 6HR MAX TEMP:  80;

CHADRON        SUNNY     78  52  40 NE9       30.25F
6HR MIN TEMP:  53; 6HR MAX TEMP:  78;

KIMBALL        SUNNY     81  50  33 NE8       30.30S
SIDNEY         SUNNY     83  51  33 MISG      30.28S
6HR MIN TEMP:  54; 6HR MAX TEMP:  84;

$$

NEZ057>060-069>072-079>082-291900-
SOUTHWEST NEBRASKA

CITY           SKY/WX    TMP DP  RH WIND       PRES   REMARKS
NORTH PLATTE   CLOUDY    75  64  68 SE6       30.24R
6HR MIN TEMP:  62; 6HR MAX TEMP:  75;

IMPERIAL       CLOUDY    77  62  59 S12       30.24R
6HR MIN TEMP:  63; 6HR MAX TEMP:  77;

LEXINGTON      CLOUDY    77  66  68 SE8       30.23S
MCCOOK         CLOUDY    76  65  68 S5        30.22S
6HR MIN TEMP:  65; 6HR MAX TEMP:  76; 6HR PCP: TRACE;

OGALLALA       CLOUDY    83  60  46 SW5       30.22S
$$

NEZ005>010-023>029-035>040-094-291900-
NORTH CENTRAL NEBRASKA

CITY           SKY/WX    TMP DP  RH WIND       PRES   REMARKS
VALENTINE      MOSUNNY   86  60  41 S8        30.19S
6HR MIN TEMP:  58; 6HR MAX TEMP:  87;

AINSWORTH      MOSUNNY   84  65  52 SE6       30.19F
BROKEN BOW     CLOUDY    75  65  70 S8        30.23S
6HR MIN TEMP:  65; 6HR MAX TEMP:  76;

O`NEILL        CLOUDY    82  64  54 SE9       30.20S
ORD            CLOUDY    76  64  66 CALM      30.20F
6HR MIN TEMP:  64; 6HR MAX TEMP:  76;

THEDFORD       CLOUDY    83  61  47 SE9       30.22R
$$

NEZ041-046>049-061>064-073>077-083>087-291900-
SOUTH CENTRAL NEBRASKA

CITY           SKY/WX    TMP DP  RH WIND       PRES   REMARKS
GRAND ISLAND   CLOUDY    79  66  64 SE6       30.22S
6HR MIN TEMP:  64; 6HR MAX TEMP:  79;

AURORA         CLOUDY    78  70  77 SE6       30.21F
HASTINGS       CLOUDY    77  68  73 S6        30.22F
6HR MIN TEMP:  64; 6HR MAX TEMP:  77;

HEBRON         MOSUNNY   82  71  69 CALM      30.19F
HOLDREGE       CLOUDY    73  65  74 S9        30.22S
KEARNEY *      CLOUDY    77  64  65 S8        30.20F
YORK           PTSUNNY   81  70  69 S6        30.21S
$$

NEZ011>018-030>034-042>045-291900-
NORTHEAST NEBRASKA

CITY           SKY/WX    TMP DP  RH WIND       PRES   REMARKS
NORFOLK        CLOUDY    78  65  63 S6        30.21F
6HR MIN TEMP:  67; 6HR MAX TEMP:  78;

ALBION         PTSUNNY   77  66  67 SE6       30.22S
BLAIR          CLOUDY    79  72  78 SE3       30.21S
FREMONT        CLOUDY    79  71  76 SE5       30.20F
WAYNE          LGT RAIN  74  71  88 SE3       30.22F
$$

NEZ050>053-065>068-078-088>093-291900-
SOUTHEAST NEBRASKA

CITY           SKY/WX    TMP DP  RH WIND       PRES   REMARKS
LINCOLN        CLOUDY    85  71  63 S3        30.19F HX  90
6HR MIN TEMP:  69; 6HR MAX TEMP:  86;

OMAHA EPPLEY   CLOUDY    83  72  69 SE6       30.19F
6HR MIN TEMP:  71; 6HR MAX TEMP:  83;

BEATRICE       MOSUNNY   83  73  70 SE6       30.19F
FALLS CITY     SUNNY     87  73  62 VRB5      30.18F HX  94
6HR MIN TEMP:  68; 6HR MAX TEMP:  87;

NEBRASKA CITY  CLOUDY    80  76  90 E5        30.20F
PLATTSMOUTH    CLOUDY    82  72  70 CALM      30.21S
$$

NEZ044-045-051>053-067-291900-
OMAHA AREA

CITY           SKY/WX    TMP DP  RH WIND       PRES   REMARKS
OMAHA EPPLEY   CLOUDY    83  72  69 SE6       30.19F
6HR MIN TEMP:  71; 6HR MAX TEMP:  83;

BLAIR          CLOUDY    79  72  78 SE3       30.21S
FREMONT        CLOUDY    79  71  76 SE5       30.20F
MILLARD        PTSUNNY   82  73  73 E5        30.19F
OFFUTT AFB     PTSUNNY   84  74  72 E5        30.19F HX  91
PLATTSMOUTH    CLOUDY    82  72  70 CALM      30.21S
WAHOO          FAIR      80  73  78 SE5       30.21S
$$




USA.gov is the U.S. government's official web portal to all federal, state and local government web resources and services.